Showing default

GORIZONT 19, 20263

Orbit data source: Space-Track

GORIZONT 19, 20263 is a payload satellite owned by MSvyaz (CIS) in GEO that was launched on Thu, 28 Sep 1989 UTC via a PROTON-K/DM-2 launch vehicle from the Tyuratam Missile And Space Complex (TTMTR). Payload-class satellites include a variety of spacecraft equipped with specific instruments for various scientific and technological missions. These include communications satellites like Starlink; space stations such as the ISS; scientific satellites like the Hubble; Earth observation satellites from companies like Planet Labs, Umbra, and HawkEye 360; GPS; miniature CubeSats for education and research; and military/defense satellites.

Not visible in the next 10 days
Identifier
20263, 1989-081A
Orbit
GEO
Country
Flag of CISCIS
Related business
Manufacturer
NPO PM
Mission
Non-operational Civil Communications
Bus & Motor
GORIZONT, Unknown motor
Mass
2,120 kg wet, ~2,000 kg dry
Launch date (UTC)
1989-09-28 (36 years ago)
Launch vehicle
PROTON-K/DM-2
Launch site
Tyuratam Missile And Space Complex (TTMTR)
Object type
Payload
Rocket body
Debris
Shape & HBR
Cyl + 2 Pan, 4.8 m
Radar Cross Section
23.870 m², Large (>1 m²)

Expand to show TLE details & history
Last TLE update: 10 hours ago

TLE from 10 hours ago
0 GORIZONT 19
1 20263U 89081A   25294.80374583 -.00000369  00000-0  00000-0 0  9998
2 20263  12.3405 335.0905 0006410 263.1251 195.2896  1.00280709 44955
Epoch: 2025-10-21T19:17Z
TLE epoch observation values (Epoch: 2025-10-21T19:17:23.639Z)
Latitude
12.20777°
Longitude
113.83211°
Altitude
35,809.084 km
Speed
3.073 km/s
True Right ascension
04h 54m 40s
True Declination
12° 11' 45"
Sunlit
Object was in daylight at epoch
Visualization orbit readout
Latitude
Unknown
Longitude
Unknown
Altitude
Unknown
Speed
Unknown
Apparent Right ascension
Unknown
Apparent Declination
Unknown
Sunlit
N/A
Visualization observer readout
Local Sidereal Time
00:44:21
Azimuth
Unknown
Elevation
Unknown
Doppler factor
Unknown
Orbital elements
Apogee altitude
35,812.119 km
Perigee altitude
35,758.066 km
Semi-major axis
42,163.229 km
Eccentricity
0.00064
Inclination
12.3405°
RAAN
335.0905°
Arg. of periapsis
263.1251°
True anomaly
195.27025°
Mean anomaly
195.2896°
Eccentric anomaly
195.27992°
Mean motion
0.25069 °/min
Orbital period
1,436.02 mins
BSTAR
0
Loading maneuver chart data...
Computing Atmospheric mass density...
Loading historical data...
Loading historical data...
Loading historical data...
Loading historical data...
Loading historical data...
Loading historical data...
Loading historical data...

Documentation

Showing up to 5 results
|